Weather reports worldwide

Advertisment
Fair Isle, United Kingdom (3008): temperature & dewpoint: 15.01.2020 23:00:00 - 21.01.2020 23:00:00 (GMT)Fair Isle, United Kingdom (3008): temperature -20cm & temperature -100cm: 15.01.2020 23:00:00 - 21.01.2020 23:00:00 (GMT)Fair Isle, United Kingdom (3008): wind speed & gusts: 15.01.2020 23:00:00 - 21.01.2020 23:00:00 (GMT)Fair Isle, United Kingdom (3008): wind direction: 15.01.2020 23:00:00 - 21.01.2020 23:00:00 (GMT)Fair Isle, United Kingdom (3008): reduced air pressure: 15.01.2020 23:00:00 - 21.01.2020 23:00:00 (GMT)Fair Isle, United Kingdom (3008): visibility: 15.01.2020 23:00:00 - 21.01.2020 23:00:00 (GMT)Fair Isle, United Kingdom (3008): precipitation: 15.01.2020 23:00:00 - 21.01.2020 23:00:00 (GMT)
Date & Time tt [°C] td [°C] tt -20cm [°C] tt -100cm [°C] ff [km/h] ff [kn] fx [km/h] fx [kn] dd ppp [hPa] vv [km] rr [mm]
21.01.2020 23:00:00 7,3 5,2 - - 21 11 - - W 1032,4 13 0,0
21.01.2020 22:00:00 6,7 4,5 - - 18 10 - - W 1032,5 19 0,2
21.01.2020 21:00:00 6,5 5,2 - - 24 13 - - W 1033,0 17 0,8
21.01.2020 20:00:00 7,4 3,8 - - 16 9 - - W 1032,7 14 0,0
21.01.2020 19:00:00 7,1 3,5 - - 24 13 46 25 W 1032,3 19 0,0
21.01.2020 18:00:00 6,8 3,7 - - 28 15 - - W 1032,2 17 0,0
21.01.2020 17:00:00 7,1 3,9 - - 34 18 48 26 W 1031,9 16 0,0
21.01.2020 16:00:00 6,9 3,1 - - 31 17 46 25 W 1032,5 26 0,0
21.01.2020 15:00:00 6,6 3,9 - - 35 19 52 28 W 1032,5 22 0,0
21.01.2020 14:00:00 7,3 3,0 - - 24 13 50 27 W 1033,0 16 0,0
21.01.2020 13:00:00 7,2 2,3 - - 28 15 - - W 1032,9 21 0,0
21.01.2020 12:00:00 7,4 3,1 - - 34 18 50 27 W 1033,7 18 0,0
21.01.2020 11:00:00 7,5 2,0 - - 28 15 48 26 W 1033,8 17 0,0
21.01.2020 10:00:00 7,4 2,5 - - 29 16 - - W 1033,4 15 0,0
21.01.2020 09:00:00 7,1 2,4 6,7 6,5 24 13 - - W 1033,2 14 0,0
21.01.2020 08:00:00 7,1 2,7 - - 24 13 - - W 1032,8 15 0,0
21.01.2020 07:00:00 7,1 2,7 - - 22 12 - - W 1032,5 15 0,0
21.01.2020 06:00:00 6,9 3,5 - - 21 11 - - W 1032,1 10 0,0
21.01.2020 05:00:00 6,9 3,3 - - 22 12 - - WNW 1032,2 17 0,2
21.01.2020 04:00:00 7,0 4,3 - - 28 15 46 25 WNW 1032,4 6 0,0
21.01.2020 03:00:00 7,1 6,5 - - 24 13 - - W 1031,5 13 0,2
21.01.2020 02:00:00 7,0 6,5 - - 28 15 - - WNW 1030,5 12 0,2
21.01.2020 01:00:00 7,7 7,4 - - 22 12 54 29 WNW 1029,4 3,2 0,0
21.01.2020 00:00:00 9,0 8,5 - - 44 24 81 44 WSW 1028,3 5 0,0
20.01.2020 23:00:00 9,0 8,4 - - 50 27 78 42 WSW 1027,8 6 0,0
20.01.2020 22:00:00 8,8 8,2 - - 55 30 74 40 WSW 1028,0 8 0,2
20.01.2020 21:00:00 8,8 7,9 - - 54 29 78 42 SW 1028,2 10 0,0
20.01.2020 20:00:00 8,7 7,9 - - 55 30 78 42 WSW 1028,7 8 0,0
20.01.2020 19:00:00 8,9 7,7 - - 57 31 72 39 WSW 1029,0 8 0,0
20.01.2020 18:00:00 9,0 7,7 - - 48 26 74 40 WSW 1029,2 8 0,0
20.01.2020 17:00:00 9,0 7,6 - - 46 25 81 44 WSW 1029,5 8 0,0
20.01.2020 16:00:00 9,1 7,4 - - 57 31 83 45 WSW 1029,5 9 0,0
20.01.2020 15:00:00 9,1 7,4 - - 55 30 87 47 SW 1029,9 9 0,0
20.01.2020 14:00:00 9,0 7,2 - - 52 28 83 45 SW 1030,9 10 0,0
20.01.2020 13:00:00 9,2 7,1 - - 59 32 81 44 SW 1031,2 12 0,0
20.01.2020 12:00:00 8,6 7,4 - - 37 20 50 27 SW 1031,3 17 0,0
20.01.2020 11:00:00 8,8 7,8 - - 35 19 46 25 SW 1031,8 7 0,0
20.01.2020 10:00:00 8,6 7,6 - - 34 18 54 29 SW 1031,4 8 0,0
20.01.2020 09:00:00 8,4 7,4 6,0 6,5 41 22 52 28 SW 1031,4 10 0,0
20.01.2020 08:00:00 8,6 7,6 - - 31 17 - - SW 1031,7 7 0,0
20.01.2020 07:00:00 8,4 7,4 - - 24 13 50 27 SW 1031,9 7 0,0
20.01.2020 06:00:00 8,7 7,5 - - 39 21 72 39 SW 1031,8 8 0,0
20.01.2020 05:00:00 8,9 7,5 - - 44 24 70 38 WSW 1031,6 8 0,0
20.01.2020 04:00:00 8,9 7,5 - - 46 25 68 37 WSW 1032,2 6 0,0
20.01.2020 03:00:00 8,9 7,4 - - 48 26 70 38 WSW 1032,2 7 0,0
20.01.2020 02:00:00 8,9 7,4 - - 46 25 87 47 WSW 1032,2 7 0,0
20.01.2020 01:00:00 8,9 7,3 - - 55 30 78 42 WSW 1031,9 8 0,0
20.01.2020 00:00:00 8,9 7,3 - - 48 26 83 45 WSW 1032,0 8 0,0
19.01.2020 23:00:00 8,9 7,1 - - 50 27 91 49 WSW 1031,8 8 0,0
19.01.2020 22:00:00 8,8 6,9 - - 57 31 80 43 WSW 1031,6 9 0,0
19.01.2020 21:00:00 8,5 6,7 - - 57 31 78 42 WSW 1031,6 11 0,2
19.01.2020 20:00:00 8,1 6,6 - - 63 34 85 46 SW 1031,7 4,9 0,2
19.01.2020 19:00:00 8,2 5,1 - - 46 25 72 39 SW 1032,0 12 0,0
19.01.2020 18:00:00 7,9 4,2 - - 39 21 55 30 SW 1032,4 17 0,0
19.01.2020 17:00:00 7,5 4,6 - - 35 19 52 28 SW 1032,6 13 0,0
19.01.2020 16:00:00 7,4 4,3 - - 35 19 48 26 SW 1033,1 18 0,0
19.01.2020 15:00:00 7,2 4,6 - - 34 18 52 28 SSW 1033,4 14 0,0
19.01.2020 14:00:00 7,2 4,6 - - 42 23 55 30 SSW 1033,3 16 0,0
19.01.2020 13:00:00 7,2 4,6 - - 34 18 57 31 SSW 1033,1 15 0,0
19.01.2020 12:00:00 7,1 4,2 - - 37 20 50 27 SW 1034,0 17 0,0
19.01.2020 11:00:00 6,9 4,3 - - 35 19 48 26 SW 1034,1 20 0,0
19.01.2020 10:00:00 6,9 4,9 - - 29 16 46 25 SW 1034,3 13 0,0
19.01.2020 09:00:00 7,2 4,1 5,9 6,5 35 19 - - WSW 1034,4 18 0,0
19.01.2020 08:00:00 7,3 4,0 - - 35 19 50 27 WSW 1034,1 20 0,0
19.01.2020 07:00:00 7,4 3,3 - - 29 16 52 28 W 1033,7 17 0,0
19.01.2020 06:00:00 7,5 3,7 - - 35 19 52 28 W 1033,2 17 0,0
19.01.2020 05:00:00 7,4 2,5 - - 39 21 55 30 W 1032,4 16 0,0
19.01.2020 04:00:00 7,2 3,1 - - 35 19 52 28 W 1031,7 19 0,0
19.01.2020 03:00:00 7,3 3,4 - - 29 16 55 30 W 1031,0 15 0,2
19.01.2020 02:00:00 6,9 3,3 - - 29 16 67 36 W 1030,6 19 0,2
19.01.2020 01:00:00 7,1 3,4 - - 24 13 61 33 W 1030,3 16 0,2
19.01.2020 00:00:00 7,0 2,4 - - 34 18 54 29 W 1029,3 16 0,0
18.01.2020 23:00:00 6,1 1,7 - - 37 20 55 30 WNW 1028,4 11 0,0
18.01.2020 22:00:00 6,8 0,3 - - 37 20 63 34 WNW 1027,2 21 0,0
18.01.2020 21:00:00 6,8 1,1 - - 42 23 59 32 WNW 1025,9 19 0,0
18.01.2020 20:00:00 6,8 0,8 - - 39 21 68 37 WNW 1025,0 16 0,2
18.01.2020 19:00:00 6,6 0,7 - - 29 16 74 40 NW 1023,7 12 0,0
18.01.2020 18:00:00 6,6 -0,5 - - 35 19 68 37 NW 1022,3 12 0,0
18.01.2020 17:00:00 6,4 -2,3 - - 41 22 76 41 WNW 1020,8 17 0,0
18.01.2020 16:00:00 5,7 0,8 - - 39 21 83 45 WNW 1019,1 13 0,0
18.01.2020 15:00:00 6,0 -0,2 - - 46 25 83 45 WNW 1017,4 13 0,0
18.01.2020 14:00:00 5,5 -0,8 - - 48 26 81 44 WNW 1016,0 12 0,0
18.01.2020 13:00:00 6,6 0,1 - - 48 26 80 43 WNW 1014,4 11 0,0
18.01.2020 12:00:00 6,7 -0,3 - - 50 27 74 40 WNW 1013,1 15 0,0
18.01.2020 11:00:00 6,5 -1,4 - - 46 25 76 41 WNW 1012,0 19 0,0
18.01.2020 10:00:00 4,9 -0,3 - - 50 27 78 42 WNW 1011,3 10 0,2
18.01.2020 09:00:00 6,5 -1,5 6,0 6,5 48 26 72 39 W 1010,3 25 0,0
18.01.2020 08:00:00 6,6 -3,1 - - 50 27 76 41 W 1009,1 22 0,0
18.01.2020 07:00:00 6,5 -0,3 - - 48 26 76 41 W 1008,3 12 0,0
18.01.2020 06:00:00 6,5 -0,4 - - 50 27 74 40 W 1007,3 20 0,0
18.01.2020 05:00:00 6,5 0,6 - - 46 25 76 41 W 1006,3 12 0,0
18.01.2020 04:00:00 6,6 1,8 - - 44 24 76 41 W 1005,3 10 0,2
18.01.2020 03:00:00 6,3 4,0 - - 42 23 74 40 W 1004,8 8 0,2
18.01.2020 02:00:00 6,4 3,2 - - 42 23 72 39 W 1003,8 9 0,0
18.01.2020 01:00:00 6,8 3,0 - - 44 24 76 41 W 1002,6 12 0,0
18.01.2020 00:00:00 7,1 3,5 - - 37 20 72 39 W 1001,9 12 0,0
17.01.2020 23:00:00 7,1 3,7 - - 42 23 72 39 W 1000,8 11 0,0
17.01.2020 22:00:00 7,1 3,6 - - 50 27 67 36 W 999,7 12 0,0
17.01.2020 21:00:00 6,9 4,3 - - 46 25 72 39 W 999,1 11 0,0
17.01.2020 20:00:00 7,3 4,4 - - 46 25 80 43 WSW 998,4 10 0,0
17.01.2020 19:00:00 7,1 4,7 - - 55 30 74 40 SW 997,6 10 0,0
17.01.2020 18:00:00 7,1 4,7 - - 59 32 78 42 WSW 997,0 10 0,0
17.01.2020 17:00:00 7,0 4,6 - - 61 33 76 41 SW 996,5 11 0,0
17.01.2020 16:00:00 7,3 4,2 - - 55 30 81 44 SW 995,8 11 0,0
17.01.2020 15:00:00 7,4 4,0 - - 59 32 76 41 SW 995,0 10 0,0
17.01.2020 14:00:00 6,9 3,9 - - 55 30 80 43 SSW 994,4 13 0,0
17.01.2020 13:00:00 6,9 3,7 - - 59 32 83 45 SSW 994,2 9 0,0
17.01.2020 12:00:00 6,9 3,0 - - 61 33 89 48 SSW 993,9 12 0,0
17.01.2020 11:00:00 6,9 2,2 - - 65 35 87 47 SSW 994,0 12 0,0
17.01.2020 10:00:00 6,6 2,3 - - 63 34 81 44 S 993,7 16 0,0
17.01.2020 09:00:00 6,6 2,2 6,0 6,5 63 34 80 43 S 993,9 15 0,0
17.01.2020 08:00:00 6,8 2,6 - - 57 31 81 44 S 993,6 15 0,0
17.01.2020 07:00:00 6,8 2,9 - - 63 34 81 44 S 993,6 15 0,0
17.01.2020 06:00:00 6,9 3,4 - - 55 30 81 44 S 993,3 14 0,0
17.01.2020 05:00:00 7,0 3,7 - - 52 28 72 39 S 993,2 13 0,0
17.01.2020 04:00:00 7,4 4,6 - - 48 26 59 32 S 993,1 13 0,0
17.01.2020 03:00:00 7,5 4,2 - - 42 23 63 34 SSW 993,0 14 0,0
17.01.2020 02:00:00 7,9 4,9 - - 39 21 70 38 SSW 992,7 13 0,0
17.01.2020 01:00:00 7,9 4,5 - - 52 28 74 40 SSW 992,1 14 0,0
17.01.2020 00:00:00 8,4 6,7 - - 48 26 70 38 SSW 991,2 9 0,0
16.01.2020 23:00:00 8,5 7,4 - - 50 27 74 40 S 990,4 7 0,0
16.01.2020 22:00:00 8,4 7,4 - - 48 26 74 40 S 990,1 7 0,4
16.01.2020 21:00:00 7,9 7,3 - - 52 28 72 39 SSE 990,5 5 1,0
16.01.2020 20:00:00 7,2 6,2 - - 52 28 78 42 SE 992,3 6 3,4
16.01.2020 19:00:00 7,3 5,7 - - 50 27 72 39 SE 994,3 6 0,2
16.01.2020 18:00:00 7,5 5,7 - - 46 25 70 38 SE 995,5 9 0,0
16.01.2020 17:00:00 7,5 6,1 - - 37 20 63 34 SE 997,1 9 0,0
16.01.2020 16:00:00 7,7 6,2 - - 42 23 59 32 SSE 999,0 9 0,0
16.01.2020 15:00:00 7,6 6,2 - - 39 21 55 30 SSE 1000,4 9 0,2
16.01.2020 14:00:00 7,5 6,4 - - 34 18 50 27 SSE 1001,8 8 0,4
16.01.2020 13:00:00 7,5 5,8 - - 37 20 59 32 S 1002,9 10 0,0
16.01.2020 12:00:00 7,4 4,7 - - 44 24 57 31 S 1003,6 13 0,0
16.01.2020 11:00:00 6,7 3,3 - - 35 19 57 31 S 1004,3 20 0,0
16.01.2020 10:00:00 6,8 3,9 - - 41 22 54 29 SSW 1004,0 13 0,0
16.01.2020 09:00:00 6,8 3,5 5,9 6,5 34 18 50 27 SSW 1003,5 12 0,0
16.01.2020 08:00:00 6,8 3,2 - - 42 23 57 31 SW 1002,7 11 0,0
16.01.2020 07:00:00 6,7 3,5 - - 42 23 57 31 SSW 1001,6 12 0,0
16.01.2020 06:00:00 7,1 3,9 - - 41 22 80 43 SW 1000,9 12 0,0
16.01.2020 05:00:00 7,1 3,4 - - 54 29 93 50 SW 999,3 15 0,0
16.01.2020 04:00:00 7,7 4,1 - - 57 31 80 43 WSW 998,0 11 0,0
16.01.2020 03:00:00 7,8 4,9 - - 48 26 76 41 WSW 996,9 9 0,0
16.01.2020 02:00:00 7,7 5,2 - - 48 26 80 43 WSW 995,5 10 0,0
16.01.2020 01:00:00 7,5 4,9 - - 50 27 74 40 WSW 993,9 9 0,0
16.01.2020 00:00:00 7,9 5,0 - - 52 28 76 41 WSW 991,8 8 0,0
15.01.2020 23:00:00 7,6 4,7 - - 57 31 89 48 WSW 989,8 9 0,0

tt = temperature
td = dewpoint
tt -20cm = temperature -20cm
tt -100cm = temperature -100cm
ff = wind speed
fx = gusts
dd = wind direction
ppp = reduced air pressure
vv = visibility
rr = precipitation

Next stations